datetime,flow
1956-12-15,504.0
1956-12-16,423.0
1956-12-17,358.0
1956-12-18,310.0
1956-12-19,270.0
1956-12-20,235.0
1956-12-21,215.0
1956-12-22,193.0
1956-12-23,179.0
1956-12-24,166.0
1956-12-25,154.0
1956-12-26,142.0
1956-12-27,132.0
1956-12-28,126.0
1956-12-29,121.0
1956-12-30,117.0
1956-12-31,112.0
1957-01-01,107.0
1957-01-02,102.0
1957-01-03,99.0
1957-01-04,96.0
1957-01-05,92.0
1957-01-06,88.0
1957-01-07,95.0
1957-01-08,98.0
1957-01-09,90.0
1957-01-10,90.0
1957-01-11,96.0
1957-01-12,103.0
1957-01-13,124.0
1957-01-14,158.0
1957-01-15,219.0
1957-01-16,197.0
1957-01-17,166.0
1957-01-18,153.0
1957-01-19,164.0
1957-01-20,300.0
1957-01-21,245.0
1957-01-22,203.0
1957-01-23,173.0
1957-01-24,163.0
1957-01-25,151.0
1957-01-26,132.0
1957-01-27,121.0
1957-01-28,119.0
1957-01-29,111.0
1957-01-30,107.0
1957-01-31,106.0
1957-02-01,119.0
1957-02-02,110.0
1957-02-03,104.0
1957-02-04,102.0
1957-02-05,101.0
1957-02-06,98.0
1957-02-07,106.0
1957-02-08,128.0
1957-02-09,126.0
1957-02-10,125.0
1957-02-11,122.0
1957-02-12,122.0
1957-02-13,165.0
1957-02-14,335.0
1957-02-15,420.0
1957-02-16,438.0
1957-02-17,462.0
1957-02-18,480.0
1957-02-19,459.0
1957-02-20,444.0
1957-02-21,528.0
1957-02-22,751.0
1957-02-23,1150.0
1957-02-24,4090.0
1957-02-25,3310.0
1957-02-26,6300.0
1957-02-27,3060.0
1957-02-28,1850.0
1957-03-01,1370.0
1957-03-02,1110.0
1957-03-03,950.0
1957-03-04,1360.0
1957-03-05,1900.0
1957-03-06,1950.0
1957-03-07,1750.0
1957-03-08,1420.0
1957-03-09,1590.0
1957-03-10,1220.0
1957-03-11,1670.0
1957-03-12,2020.0
1957-03-13,1370.0
1957-03-14,1090.0
1957-03-15,1050.0
1957-03-16,936.0
1957-03-17,856.0
1957-03-18,800.0
1957-03-19,786.0
1957-03-20,790.0
1957-03-21,737.0
1957-03-22,678.0
1957-03-23,627.0
1957-03-24,624.0
1957-03-25,968.0
1957-03-26,1000.0
1957-03-27,905.0
1957-03-28,947.0
1957-03-29,1120.0
1957-03-30,1040.0
1957-03-31,1090.0
1957-04-01,975.0
1957-04-02,888.0
1957-04-03,888.0
1957-04-04,888.0
1957-04-05,898.0
1957-04-06,898.0
1957-04-07,782.0
1957-04-08,723.0
1957-04-09,698.0
1957-04-10,688.0
1957-04-11,657.0
1957-04-12,660.0
1957-04-13,648.0
1957-04-14,992.0
1957-04-15,782.0
1957-04-16,706.0
1957-04-17,657.0
1957-04-18,633.0
1957-04-19,606.0
1957-04-20,570.0
1957-04-21,546.0
1957-04-22,528.0
1957-04-23,522.0
1957-04-24,513.0
1957-04-25,495.0
1957-04-26,489.0
1957-04-27,507.0
1957-04-28,564.0
1957-04-29,654.0
1957-04-30,660.0
1957-05-01,651.0
1957-05-02,660.0
1957-05-03,561.0
1957-05-04,549.0
1957-05-05,582.0
1957-05-06,600.0
1957-05-07,603.0
1957-05-08,567.0
1957-05-09,516.0
1957-05-10,498.0
1957-05-11,471.0
1957-05-12,438.0
1957-05-13,441.0
1957-05-14,411.0
1957-05-15,382.0
1957-05-16,375.0
1957-05-17,463.0
1957-05-18,996.0
1957-05-19,630.0
1957-05-20,585.0
1957-05-21,546.0
1957-05-22,504.0
1957-05-23,471.0
1957-05-24,441.0
1957-05-25,423.0
1957-05-26,408.0
1957-05-27,402.0
1957-05-28,393.0
1957-05-29,372.0
1957-05-30,358.0
1957-05-31,348.0
1957-06-01,332.0
1957-06-02,315.0
1957-06-03,298.0
1957-06-04,285.0
1957-06-05,275.0
1957-06-06,262.0
1957-06-07,252.0
1957-06-08,245.0
1957-06-09,235.0
1957-06-10,228.0
1957-06-11,224.0
1957-06-12,219.0
1957-06-13,213.0
1957-06-14,215.0
1957-06-15,215.0
1957-06-16,199.0
1957-06-17,188.0
1957-06-18,182.0
1957-06-19,170.0
1957-06-20,165.0
1957-06-21,160.0
1957-06-22,156.0
1957-06-23,153.0
1957-06-24,145.0
1957-06-25,142.0
1957-06-26,137.0
1957-06-27,132.0
1957-06-28,130.0
1957-06-29,126.0
1957-06-30,124.0
1957-07-01,122.0
1957-07-02,118.0
1957-07-03,117.0
1957-07-04,115.0
1957-07-05,110.0
1957-07-06,110.0
1957-07-07,107.0
1957-07-08,104.0
1957-07-09,102.0
1957-07-10,98.0
1957-07-11,95.0
1957-07-12,94.0
1957-07-13,102.0
1957-07-14,117.0
1957-07-15,102.0
1957-07-16,96.0
1957-07-17,94.0
1957-07-18,90.0
1957-07-19,88.0
1957-07-20,86.0
1957-07-21,85.0
1957-07-22,84.0
1957-07-23,80.0
1957-07-24,79.0
1957-07-25,77.0
1957-07-26,75.0
1957-07-27,75.0
1957-07-28,74.0
1957-07-29,74.0
1957-07-30,71.0
1957-07-31,69.0
1957-08-01,69.0
1957-08-02,68.0
1957-08-03,68.0
1957-08-04,67.0
1957-08-05,68.0
1957-08-06,69.0
1957-08-07,66.0
1957-08-08,66.0
1957-08-09,66.0
1957-08-10,65.0
1957-08-11,65.0
1957-08-12,63.0
1957-08-13,61.0
1957-08-14,61.0
1957-08-15,58.0
1957-08-16,57.0
1957-08-17,56.0
1957-08-18,56.0
1957-08-19,57.0
1957-08-20,56.0
1957-08-21,56.0
1957-08-22,54.0
1957-08-23,52.0
1957-08-24,51.0
1957-08-25,49.0
1957-08-26,51.0
1957-08-27,51.0
1957-08-28,51.0
1957-08-29,50.0
1957-08-30,51.0
1957-08-31,49.0
1957-09-01,48.0
1957-09-02,49.0
1957-09-03,48.0
1957-09-04,48.0
1957-09-05,48.0
1957-09-06,48.0
1957-09-07,46.0
1957-09-08,45.0
1957-09-09,44.0
1957-09-10,44.0
1957-09-11,44.0
1957-09-12,44.0
1957-09-13,44.0
1957-09-14,43.0
1957-09-15,42.0
1957-09-16,42.0
1957-09-17,43.0
1957-09-18,44.0
1957-09-19,45.0
1957-09-20,44.0
1957-09-21,44.0
1957-09-22,43.0
1957-09-23,42.0
1957-09-24,40.0
1957-09-25,40.0
1957-09-26,81.0
1957-09-27,160.0
1957-09-28,87.0
1957-09-29,75.0
1957-09-30,69.0
1957-10-01,73.0
1957-10-02,63.0
1957-10-03,69.0
1957-10-04,95.0
1957-10-05,118.0
1957-10-06,185.0
1957-10-07,146.0
1957-10-08,139.0
1957-10-09,332.0
1957-10-10,324.0
1957-10-11,256.0
1957-10-12,231.0
1957-10-13,467.0
1957-10-14,313.0
1957-10-15,211.0
1957-10-16,161.0
1957-10-17,135.0
1957-10-18,119.0
1957-10-19,107.0
1957-10-20,100.0
1957-10-21,93.0
1957-10-22,78.0
1957-10-23,150.0
1957-10-24,189.0
1957-10-25,236.0
1957-10-26,211.0
1957-10-27,167.0
1957-10-28,143.0
1957-10-29,124.0
1957-10-30,110.0
1957-10-31,102.0
1957-11-01,95.0
1957-11-02,89.0
1957-11-03,86.0
1957-11-04,82.0
1957-11-05,78.0
1957-11-06,75.0
1957-11-07,74.0
1957-11-08,72.0
1957-11-09,72.0
1957-11-10,182.0
1957-11-11,185.0
1957-11-12,429.0
1957-11-13,2960.0
1957-11-14,1290.0
1957-11-15,654.0
1957-11-16,427.0
1957-11-17,366.0
1957-11-18,522.0
1957-11-19,475.0
1957-11-20,430.0
1957-11-21,390.0
1957-11-22,353.0
1957-11-23,268.0
1957-11-24,229.0
1957-11-25,198.0
1957-11-26,173.0
1957-11-27,156.0
1957-11-28,142.0
1957-11-29,127.0
1957-11-30,118.0
1957-12-01,111.0
1957-12-02,106.0
1957-12-03,100.0
1957-12-04,95.0
1957-12-05,91.0
1957-12-06,109.0
1957-12-07,172.0
1957-12-08,137.0
1957-12-09,116.0
1957-12-10,106.0
1957-12-11,97.0
1957-12-12,94.0
1957-12-13,88.0
1957-12-14,84.0
1957-12-15,90.0
1957-12-16,252.0
1957-12-17,534.0
1957-12-18,552.0
1957-12-19,567.0
1957-12-20,1230.0
1957-12-21,3050.0
1957-12-22,1350.0
1957-12-23,850.0
1957-12-24,796.0
1957-12-25,889.0
1957-12-26,1160.0
1957-12-27,988.0
1957-12-28,1720.0
1957-12-29,1260.0
1957-12-30,910.0
1957-12-31,752.0
1958-01-01,814.0
1958-01-02,801.0
1958-01-03,701.0
1958-01-04,619.0
1958-01-05,560.0
1958-01-06,515.0
1958-01-07,475.0
1958-01-08,463.0
1958-01-09,473.0
1958-01-10,892.0
1958-01-11,877.0
1958-01-12,1530.0
1958-01-13,1100.0
1958-01-14,871.0
1958-01-15,1210.0
1958-01-16,1130.0
1958-01-17,1000.0
1958-01-18,874.0
1958-01-19,770.0
1958-01-20,704.0
1958-01-21,627.0
1958-01-22,575.0
1958-01-23,656.0
1958-01-24,819.0
1958-01-25,791.0
1958-01-26,729.0
1958-01-27,719.0
1958-01-28,3260.0
1958-01-29,6750.0
1958-01-30,3350.0
1958-01-31,2100.0
1958-02-01,1650.0
1958-02-02,1390.0
1958-02-03,1270.0
1958-02-04,1130.0
1958-02-05,1130.0
1958-02-06,1110.0
1958-02-07,1660.0
1958-02-08,1840.0
1958-02-09,1780.0
1958-02-10,1630.0
1958-02-11,1720.0
1958-02-12,4210.0
1958-02-13,2500.0
1958-02-14,2300.0
1958-02-15,6180.0
1958-02-16,6140.0
1958-02-17,4890.0
1958-02-18,6010.0
1958-02-19,4150.0
1958-02-20,2780.0
1958-02-21,2120.0
1958-02-22,1840.0
1958-02-23,1750.0
1958-02-24,6320.0
1958-02-25,5020.0
1958-02-26,2800.0
1958-02-27,2040.0
1958-02-28,1600.0
1958-03-01,1340.0
1958-03-02,1120.0
1958-03-03,979.0
1958-03-04,883.0
1958-03-05,811.0
1958-03-06,750.0
1958-03-07,704.0
1958-03-08,660.0
1958-03-09,617.0
1958-03-10,592.0
1958-03-11,565.0
1958-03-12,540.0
1958-03-13,512.0
1958-03-14,492.0
1958-03-15,485.0
1958-03-16,461.0
1958-03-17,441.0
1958-03-18,429.0
1958-03-19,421.0
1958-03-20,465.0
1958-03-21,683.0
1958-03-22,655.0
1958-03-23,629.0
1958-03-24,624.0
1958-03-25,683.0
1958-03-26,670.0
1958-03-27,650.0
1958-03-28,624.0
1958-03-29,683.0
1958-03-30,763.0
1958-03-31,829.0
1958-04-01,865.0
1958-04-02,1010.0
1958-04-03,907.0
1958-04-04,770.0
1958-04-05,701.0
1958-04-06,665.0
1958-04-07,645.0
1958-04-08,629.0
1958-04-09,635.0
1958-04-10,724.0
1958-04-11,811.0
1958-04-12,907.0
1958-04-13,1010.0
1958-04-14,985.0
1958-04-15,943.0
1958-04-16,943.0
1958-04-17,1350.0
1958-04-18,1340.0
1958-04-19,1080.0
1958-04-20,1070.0
1958-04-21,1070.0
1958-04-22,1020.0
1958-04-23,856.0
1958-04-24,752.0
1958-04-25,693.0
1958-04-26,663.0
1958-04-27,642.0
1958-04-28,650.0
1958-04-29,688.0
1958-04-30,765.0
1958-05-01,853.0
1958-05-02,934.0
1958-05-03,940.0
1958-05-04,943.0
1958-05-05,1040.0
1958-05-06,1010.0
1958-05-07,958.0
1958-05-08,1030.0
1958-05-09,1170.0
1958-05-10,1280.0
1958-05-11,1160.0
1958-05-12,934.0
1958-05-13,806.0
1958-05-14,778.0
1958-05-15,827.0
1958-05-16,958.0
1958-05-17,1050.0
1958-05-18,1040.0
1958-05-19,967.0
1958-05-20,910.0
1958-05-21,901.0
1958-05-22,868.0
1958-05-23,844.0
1958-05-24,752.0
1958-05-25,709.0
1958-05-26,688.0
1958-05-27,670.0
1958-05-28,624.0
1958-05-29,557.0
1958-05-30,530.0
1958-05-31,520.0
1958-06-01,512.0
1958-06-02,619.0
1958-06-03,575.0
1958-06-04,495.0
1958-06-05,467.0
1958-06-06,465.0
1958-06-07,439.0
1958-06-08,449.0
1958-06-09,447.0
1958-06-10,421.0
1958-06-11,395.0
1958-06-12,370.0
1958-06-13,348.0
1958-06-14,337.0
1958-06-15,334.0
1958-06-16,326.0
1958-06-17,315.0
1958-06-18,306.0
1958-06-19,311.0
1958-06-20,287.0
1958-06-21,269.0
1958-06-22,258.0
1958-06-23,247.0
1958-06-24,234.0
1958-06-25,219.0
1958-06-26,212.0
1958-06-27,204.0
1958-06-28,197.0
1958-06-29,189.0
1958-06-30,185.0
1958-07-01,195.0
1958-07-02,190.0
1958-07-03,177.0
1958-07-04,170.0
1958-07-05,166.0
1958-07-06,159.0
1958-07-07,156.0
1958-07-08,152.0
1958-07-09,145.0
1958-07-10,140.0
1958-07-11,138.0
1958-07-12,133.0
1958-07-13,130.0
1958-07-14,128.0
1958-07-15,126.0
1958-07-16,130.0
1958-07-17,152.0
1958-07-18,143.0
1958-07-19,128.0
1958-07-20,120.0
1958-07-21,114.0
1958-07-22,111.0
1958-07-23,110.0
1958-07-24,110.0
1958-07-25,108.0
1958-07-26,106.0
1958-07-27,103.0
1958-07-28,100.0
1958-07-29,97.0
1958-07-30,92.0
1958-07-31,91.0
1958-08-01,90.0
1958-08-02,91.0
1958-08-03,88.0
1958-08-04,85.0
1958-08-05,85.0
1958-08-06,86.0
1958-08-07,85.0
1958-08-08,83.0
1958-08-09,79.0
1958-08-10,77.0
1958-08-11,75.0
1958-08-12,74.0
1958-08-13,73.0
1958-08-14,72.0
1958-08-15,70.0
1958-08-16,69.0
1958-08-17,70.0
1958-08-18,73.0
1958-08-19,71.0
1958-08-20,79.0
1958-08-21,73.0
1958-08-22,70.0
1958-08-23,68.0
1958-08-24,66.0
1958-08-25,66.0
1958-08-26,64.0
1958-08-27,63.0
1958-08-28,63.0
1958-08-29,61.0
1958-08-30,61.0
1958-08-31,60.0
1958-09-01,59.0
1958-09-02,59.0
1958-09-03,59.0
1958-09-04,58.0
1958-09-05,56.0
1958-09-06,55.0
1958-09-07,55.0
1958-09-08,68.0
1958-09-09,67.0
1958-09-10,64.0
1958-09-11,66.0
1958-09-12,65.0
1958-09-13,78.0
1958-09-14,71.0
1958-09-15,65.0
1958-09-16,63.0
1958-09-17,62.0
1958-09-18,59.0
1958-09-19,58.0
1958-09-20,57.0
1958-09-21,56.0
1958-09-22,56.0
1958-09-23,56.0
1958-09-24,55.0
1958-09-25,55.0
1958-09-26,55.0
1958-09-27,52.0
1958-09-28,50.0
1958-09-29,49.0
1958-09-30,47.0
1958-10-01,46.0
1958-10-02,47.0
1958-10-03,47.0
1958-10-04,47.0
1958-10-05,47.0
1958-10-06,45.0
1958-10-07,45.0
1958-10-08,47.0
1958-10-09,47.0
1958-10-10,47.0
1958-10-11,48.0
1958-10-12,47.0
1958-10-13,47.0
1958-10-14,46.0
1958-10-15,46.0
1958-10-16,45.0
1958-10-17,47.0
1958-10-18,52.0
1958-10-19,109.0
1958-10-20,66.0
1958-10-21,57.0
1958-10-22,56.0
1958-10-23,54.0
1958-10-24,53.0
1958-10-25,53.0
1958-10-26,52.0
1958-10-27,52.0
1958-10-28,52.0
1958-10-29,51.0
1958-10-30,50.0
1958-10-31,54.0
1958-11-01,66.0
1958-11-02,57.0
1958-11-03,63.0
1958-11-04,82.0
1958-11-05,117.0
1958-11-06,88.0
1958-11-07,120.0
1958-11-08,89.0
1958-11-09,138.0
1958-11-10,166.0
1958-11-11,106.0
1958-11-12,84.0
1958-11-13,408.0
1958-11-14,385.0
1958-11-15,197.0
1958-11-16,142.0
1958-11-17,116.0
1958-11-18,127.0
1958-11-19,580.0
1958-11-20,394.0
1958-11-21,248.0
1958-11-22,192.0
1958-11-23,158.0
1958-11-24,138.0
1958-11-25,123.0
1958-11-26,113.0
1958-11-27,106.0
1958-11-28,100.0
1958-11-29,94.0
1958-11-30,88.0
1958-12-01,101.0
1958-12-02,100.0
1958-12-03,96.0
1958-12-04,90.0
1958-12-05,86.0
1958-12-06,83.0
1958-12-07,101.0
1958-12-08,166.0
1958-12-09,155.0
1958-12-10,138.0
1958-12-11,123.0
1958-12-12,135.0
1958-12-13,120.0
1958-12-14,111.0
1958-12-15,104.0
1958-12-16,97.0
1958-12-17,94.0
1958-12-18,90.0
1958-12-19,88.0
1958-12-20,166.0
1958-12-21,180.0
1958-12-22,143.0
1958-12-23,126.0
1958-12-24,140.0
1958-12-25,170.0
1958-12-26,250.0
1958-12-27,550.0
1958-12-28,350.0
1958-12-29,280.0
1958-12-30,270.0
1958-12-31,280.0
1959-01-01,230.0
1959-01-02,200.0
1959-01-03,170.0
1959-01-04,209.0
1959-01-05,222.0
1959-01-06,200.0
1959-01-07,288.0
1959-01-08,700.0
1959-01-09,1500.0
1959-01-10,1800.0
1959-01-11,1700.0
1959-01-12,4500.0
1959-01-13,2110.0
1959-01-14,1280.0
1959-01-15,958.0
1959-01-16,791.0
1959-01-17,722.0
1959-01-18,668.0
1959-01-19,622.0
1959-01-20,580.0
1959-01-21,542.0
1959-01-22,507.0
1959-01-23,482.0
1959-01-24,1050.0
1959-01-25,958.0
1959-01-26,867.0
1959-01-27,2180.0
1959-01-28,1830.0
1959-01-29,1190.0
1959-01-30,940.0
1959-01-31,804.0
1959-02-01,714.0
1959-02-02,648.0
1959-02-03,590.0
1959-02-04,567.0
1959-02-05,538.0
1959-02-06,509.0
1959-02-07,487.0
1959-02-08,463.0
1959-02-09,463.0
1959-02-10,450.0
1959-02-11,423.0
1959-02-12,396.0
1959-02-13,396.0
1959-02-14,655.0
1959-02-15,610.0
1959-02-16,784.0
1959-02-17,925.0
1959-02-18,1120.0
1959-02-19,1040.0
1959-02-20,867.0
1959-02-21,741.0
1959-02-22,668.0
1959-02-23,633.0
1959-02-24,610.0
1959-02-25,581.0
1959-02-26,573.0
1959-02-27,581.0
1959-02-28,654.0
1959-03-01,755.0
1959-03-02,807.0
1959-03-03,810.0
1959-03-04,749.0
1959-03-05,712.0
1959-03-06,697.0
1959-03-07,662.0
1959-03-08,633.0
1959-03-09,604.0
1959-03-10,576.0
1959-03-11,549.0
1959-03-12,561.0
1959-03-13,573.0
1959-03-14,538.0
1959-03-15,515.0
1959-03-16,518.0
1959-03-17,552.0
1959-03-18,552.0
1959-03-19,538.0
1959-03-20,518.0
1959-03-21,529.0
1959-03-22,532.0
1959-03-23,610.0
1959-03-24,567.0
1959-03-25,675.0
1959-03-26,899.0
1959-03-27,746.0
1959-03-28,712.0
1959-03-29,712.0
1959-03-30,822.0
1959-03-31,843.0
1959-04-01,926.0
1959-04-02,1090.0
1959-04-03,1110.0
1959-04-04,1070.0
1959-04-05,1100.0
1959-04-06,1150.0
1959-04-07,902.0
1959-04-08,807.0
1959-04-09,778.0
1959-04-10,769.0
1959-04-11,769.0
1959-04-12,746.0
1959-04-13,697.0
1959-04-14,654.0
1959-04-15,616.0
1959-04-16,581.0
1959-04-17,561.0
1959-04-18,538.0
1959-04-19,526.0
1959-04-20,529.0
1959-04-21,558.0
1959-04-22,584.0
1959-04-23,631.0
1959-04-24,697.0
1959-04-25,686.0
1959-04-26,645.0
1959-04-27,581.0
1959-04-28,532.0
1959-04-29,541.0
1959-04-30,587.0
1959-05-01,555.0
1959-05-02,490.0
1959-05-03,458.0
1959-05-04,436.0
1959-05-05,442.0
1959-05-06,450.0
1959-05-07,461.0
1959-05-08,490.0
1959-05-09,487.0
1959-05-10,455.0
1959-05-11,455.0
1959-05-12,509.0
1959-05-13,587.0
1959-05-14,538.0
1959-05-15,461.0
1959-05-16,420.0
1959-05-17,410.0
1959-05-18,391.0
1959-05-19,367.0
1959-05-20,357.0
1959-05-21,354.0
1959-05-22,357.0
1959-05-23,375.0
1959-05-24,388.0
1959-05-25,377.0
1959-05-26,364.0
1959-05-27,339.0
1959-05-28,315.0
1959-05-29,305.0
1959-05-30,300.0
1959-05-31,300.0
1959-06-01,310.0
1959-06-02,310.0
1959-06-03,295.0
1959-06-04,288.0
1959-06-05,286.0
1959-06-06,269.0
1959-06-07,245.0
1959-06-08,231.0
1959-06-09,229.0
1959-06-10,215.0
1959-06-11,205.0
1959-06-12,210.0
1959-06-13,203.0
1959-06-14,190.0
1959-06-15,181.0
1959-06-16,180.0
1959-06-17,171.0
1959-06-18,176.0
1959-06-19,176.0
1959-06-20,173.0
1959-06-21,160.0
1959-06-22,149.0
1959-06-23,138.0
1959-06-24,131.0
1959-06-25,134.0
1959-06-26,138.0
1959-06-27,128.0
1959-06-28,124.0
1959-06-29,123.0
1959-06-30,119.0
1959-07-01,115.0
1959-07-02,112.0
1959-07-03,108.0
1959-07-04,104.0
1959-07-05,101.0
1959-07-06,99.0
1959-07-07,96.0
1959-07-08,93.0
1959-07-09,92.0
1959-07-10,89.0
1959-07-11,87.0
1959-07-12,85.0
1959-07-13,83.0
1959-07-14,80.0
1959-07-15,79.0
1959-07-16,78.0
1959-07-17,77.0
1959-07-18,75.0
1959-07-19,75.0
1959-07-20,74.0
1959-07-21,71.0
1959-07-22,69.0
1959-07-23,67.0
1959-07-24,66.0
1959-07-25,65.0
1959-07-26,65.0
1959-07-27,64.0
1959-07-28,63.0
1959-07-29,64.0
1959-07-30,62.0
1959-07-31,61.0
1959-08-01,60.0
1959-08-02,60.0
1959-08-03,60.0
1959-08-04,60.0
1959-08-05,60.0
1959-08-06,58.0
1959-08-07,57.0
1959-08-08,56.0
1959-08-09,55.0
1959-08-10,53.0
1959-08-11,52.0
1959-08-12,52.0
1959-08-13,53.0
1959-08-14,53.0
1959-08-15,52.0
1959-08-16,50.0
1959-08-17,50.0
1959-08-18,50.0
1959-08-19,50.0
1959-08-20,52.0
1959-08-21,54.0
1959-08-22,53.0
1959-08-23,53.0
1959-08-24,51.0
1959-08-25,48.0
1959-08-26,47.0
1959-08-27,47.0
1959-08-28,47.0
1959-08-29,47.0
1959-08-30,45.0
1959-08-31,45.0
1959-09-01,45.0
1959-09-02,44.0
1959-09-03,45.0
1959-09-04,45.0
1959-09-05,47.0
1959-09-06,47.0
1959-09-07,44.0
1959-09-08,45.0
1959-09-09,43.0
1959-09-10,42.0
1959-09-11,42.0
1959-09-12,41.0
1959-09-13,43.0
1959-09-14,48.0
1959-09-15,51.0
1959-09-16,48.0
1959-09-17,49.0
1959-09-18,113.0
1959-09-19,141.0
1959-09-20,88.0
1959-09-21,71.0
1959-09-22,60.0
1959-09-23,58.0
1959-09-24,55.0
1959-09-25,53.0
1959-09-26,55.0
1959-09-27,59.0
1959-09-28,55.0
1959-09-29,53.0
1959-09-30,51.0
1959-10-01,50.0
1959-10-02,50.0
1959-10-03,50.0
1959-10-04,49.0
1959-10-05,48.0
1959-10-06,48.0
1959-10-07,49.0
1959-10-08,74.0
1959-10-09,80.0
1959-10-10,68.0
1959-10-11,61.0
1959-10-12,57.0
1959-10-13,55.0
1959-10-14,53.0
1959-10-15,51.0
1959-10-16,50.0
1959-10-17,49.0
1959-10-18,48.0
1959-10-19,48.0
1959-10-20,49.0
1959-10-21,53.0
1959-10-22,75.0
1959-10-23,64.0
1959-10-24,58.0
1959-10-25,54.0
1959-10-26,52.0
1959-10-27,50.0
1959-10-28,49.0
1959-10-29,48.0
1959-10-30,48.0
1959-10-31,47.0
1959-11-01,46.0
1959-11-02,46.0
1959-11-03,47.0
1959-11-04,49.0
1959-11-05,46.0
1959-11-06,46.0
1959-11-07,45.0
1959-11-08,44.0
1959-11-09,43.0
1959-11-10,43.0
1959-11-11,43.0
1959-11-12,42.0
1959-11-13,42.0
1959-11-14,42.0
1959-11-15,41.0
1959-11-16,41.0
1959-11-17,41.0
1959-11-18,41.0
1959-11-19,42.0
1959-11-20,41.0
1959-11-21,64.0
1959-11-22,56.0
1959-11-23,52.0
1959-11-24,52.0
1959-11-25,49.0
1959-11-26,47.0
1959-11-27,46.0
1959-11-28,45.0
1959-11-29,44.0
1959-11-30,42.0
1959-12-01,43.0
1959-12-02,42.0
1959-12-03,41.0
1959-12-04,41.0
1959-12-05,40.0
1959-12-06,40.0
1959-12-07,40.0
1959-12-08,40.0
1959-12-09,41.0
1959-12-10,42.0
1959-12-11,47.0
1959-12-12,63.0
1959-12-13,57.0
1959-12-14,52.0
1959-12-15,50.0
1959-12-16,49.0
1959-12-17,48.0
1959-12-18,47.0
1959-12-19,47.0
1959-12-20,46.0
1959-12-21,46.0
1959-12-22,46.0
1959-12-23,51.0
1959-12-24,234.0
1959-12-25,128.0
1959-12-26,84.0
1959-12-27,74.0
1959-12-28,68.0
1959-12-29,64.0
1959-12-30,62.0
1959-12-31,60.0
1960-01-01,54.0
1960-01-02,53.0
1960-01-03,54.0
1960-01-04,52.0
1960-01-05,52.0
1960-01-06,56.0
1960-01-07,204.0
1960-01-08,476.0
1960-01-09,229.0
1960-01-10,147.0
1960-01-11,135.0
1960-01-12,109.0
1960-01-13,94.0
1960-01-14,91.0
1960-01-15,82.0
1960-01-16,79.0
1960-01-17,78.0
1960-01-18,78.0
1960-01-19,77.0
1960-01-20,77.0
1960-01-21,82.0
1960-01-22,98.0
1960-01-23,161.0
1960-01-24,200.0
1960-01-25,283.0
1960-01-26,370.0
1960-01-27,331.0
1960-01-28,460.0
1960-01-29,818.0
1960-01-30,701.0
1960-01-31,463.0
1960-02-01,758.0
1960-02-02,822.0
1960-02-03,586.0
1960-02-04,636.0
1960-02-05,839.0
1960-02-06,1030.0
1960-02-07,2630.0
1960-02-08,4830.0
1960-02-09,2330.0
1960-02-10,1290.0
1960-02-11,1040.0
1960-02-12,719.0
1960-02-13,611.0
1960-02-14,541.0
1960-02-15,513.0
1960-02-16,482.0
1960-02-17,450.0
1960-02-18,431.0
1960-02-19,393.0
1960-02-20,365.0
1960-02-21,346.0
1960-02-22,331.0
1960-02-23,316.0
1960-02-24,296.0
1960-02-25,288.0
1960-02-26,283.0
1960-02-27,263.0
1960-02-28,251.0
1960-02-29,235.0
1960-03-01,224.0
1960-03-02,215.0
1960-03-03,303.0
1960-03-04,359.0
1960-03-05,709.0
1960-03-06,1190.0
1960-03-07,2400.0
1960-03-08,1350.0
1960-03-09,1030.0
1960-03-10,779.0
1960-03-11,639.0
1960-03-12,683.0
1960-03-13,713.0
1960-03-14,616.0
1960-03-15,544.0
1960-03-16,496.0
1960-03-17,507.0
1960-03-18,566.0
1960-03-19,628.0
1960-03-20,677.0
1960-03-21,728.0
1960-03-22,764.0
1960-03-23,803.0
1960-03-24,815.0
1960-03-25,770.0
1960-03-26,755.0
1960-03-27,860.0
1960-03-28,725.0
1960-03-29,758.0
1960-03-30,1320.0
1960-03-31,1050.0
1960-04-01,1060.0
1960-04-02,1120.0
1960-04-03,1070.0
1960-04-04,1110.0
1960-04-05,1160.0
1960-04-06,1060.0
1960-04-07,995.0
1960-04-08,887.0
1960-04-09,800.0
1960-04-10,689.0
1960-04-11,636.0
1960-04-12,572.0
1960-04-13,569.0
1960-04-14,659.0
1960-04-15,580.0
1960-04-16,524.0
1960-04-17,507.0
1960-04-18,499.0
1960-04-19,493.0
1960-04-20,482.0
1960-04-21,485.0
1960-04-22,452.0
1960-04-23,414.0
1960-04-24,398.0
1960-04-25,388.0
1960-04-26,372.0
1960-04-27,362.0
1960-04-28,352.0
1960-04-29,344.0
1960-04-30,346.0
1960-05-01,359.0
1960-05-02,362.0
1960-05-03,383.0
1960-05-04,396.0
1960-05-05,380.0
1960-05-06,409.0
1960-05-07,572.0
1960-05-08,499.0
1960-05-09,471.0
1960-05-10,544.0
1960-05-11,569.0
1960-05-12,583.0
1960-05-13,468.0
1960-05-14,417.0
1960-05-15,409.0
1960-05-16,404.0
1960-05-17,378.0
1960-05-18,349.0
1960-05-19,339.0
1960-05-20,458.0
1960-05-21,436.0
1960-05-22,393.0
1960-05-23,396.0
1960-05-24,458.0
1960-05-25,1240.0
1960-05-26,2560.0
1960-05-27,1550.0
1960-05-28,1150.0
1960-05-29,1020.0
1960-05-30,920.0
1960-05-31,860.0
1960-06-01,809.0
1960-06-02,785.0
1960-06-03,722.0
1960-06-04,668.0
1960-06-05,614.0
1960-06-06,551.0
1960-06-07,491.0
1960-06-08,446.0
1960-06-09,416.0
1960-06-10,398.0
1960-06-11,385.0
1960-06-12,368.0
1960-06-13,350.0
1960-06-14,335.0
1960-06-15,322.0
1960-06-16,305.0
1960-06-17,285.0
1960-06-18,265.0
1960-06-19,252.0
1960-06-20,240.0
1960-06-21,232.0
1960-06-22,228.0
1960-06-23,220.0
1960-06-24,216.0
1960-06-25,206.0
1960-06-26,195.0
1960-06-27,187.0
1960-06-28,182.0
1960-06-29,177.0
1960-06-30,175.0
1960-07-01,171.0
1960-07-02,162.0
1960-07-03,156.0
1960-07-04,150.0
1960-07-05,147.0
1960-07-06,141.0
1960-07-07,137.0
1960-07-08,134.0
1960-07-09,133.0
1960-07-10,130.0
1960-07-11,124.0
1960-07-12,120.0
1960-07-13,116.0
1960-07-14,115.0
1960-07-15,115.0
1960-07-16,110.0
1960-07-17,105.0
1960-07-18,102.0
1960-07-19,99.0
1960-07-20,98.0
1960-07-21,96.0
1960-07-22,94.0
1960-07-23,93.0
1960-07-24,92.0
1960-07-25,92.0
1960-07-26,92.0
1960-07-27,88.0
1960-07-28,85.0
1960-07-29,84.0
1960-07-30,82.0
1960-07-31,81.0
1960-08-01,79.0
1960-08-02,78.0
1960-08-03,77.0
1960-08-04,75.0
1960-08-05,73.0
1960-08-06,72.0
1960-08-07,70.0
1960-08-08,67.0
1960-08-09,66.0
1960-08-10,66.0
1960-08-11,64.0
1960-08-12,63.0
1960-08-13,62.0
1960-08-14,62.0
1960-08-15,62.0
1960-08-16,62.0
1960-08-17,60.0
1960-08-18,58.0
1960-08-19,56.0
1960-08-20,56.0
1960-08-21,56.0
1960-08-22,61.0
1960-08-23,63.0
1960-08-24,62.0
1960-08-25,61.0
1960-08-26,60.0
1960-08-27,58.0
1960-08-28,57.0
1960-08-29,56.0
1960-08-30,55.0
1960-08-31,54.0
1960-09-01,56.0
1960-09-02,58.0
1960-09-03,57.0
1960-09-04,56.0
1960-09-05,56.0
1960-09-06,53.0
1960-09-07,52.0
1960-09-08,52.0
1960-09-09,51.0
1960-09-10,50.0
1960-09-11,48.0
1960-09-12,47.0
1960-09-13,46.0
1960-09-14,46.0
1960-09-15,46.0
1960-09-16,47.0
1960-09-17,47.0
1960-09-18,47.0
1960-09-19,46.0
1960-09-20,45.0
1960-09-21,44.0
1960-09-22,44.0
1960-09-23,44.0
1960-09-24,44.0
1960-09-25,44.0
1960-09-26,44.0
1960-09-27,44.0
1960-09-28,46.0
1960-09-29,45.0
1960-09-30,44.0
1960-10-01,44.0
1960-10-02,43.0
1960-10-03,43.0
1960-10-04,42.0
1960-10-05,44.0
1960-10-06,64.0
1960-10-07,67.0
1960-10-08,65.0
1960-10-09,54.0
1960-10-10,52.0
1960-10-11,50.0
1960-10-12,52.0
1960-10-13,51.0
1960-10-14,49.0
1960-10-15,47.0
1960-10-16,46.0
1960-10-17,46.0
1960-10-18,46.0
1960-10-19,46.0
1960-10-20,46.0
1960-10-21,46.0
1960-10-22,45.0
1960-10-23,46.0
1960-10-24,48.0
1960-10-25,48.0
1960-10-26,54.0
1960-10-27,56.0
1960-10-28,52.0
1960-10-29,52.0
1960-10-30,50.0
1960-10-31,48.0
1960-11-01,47.0
1960-11-02,46.0
1960-11-03,46.0
1960-11-04,45.0
1960-11-05,45.0
1960-11-06,46.0
1960-11-07,46.0
1960-11-08,48.0
1960-11-09,48.0
1960-11-10,49.0
1960-11-11,78.0
1960-11-12,65.0
1960-11-13,79.0
1960-11-14,82.0
1960-11-15,77.0
1960-11-16,94.0
1960-11-17,228.0